Saint Simons Island, GA

5:33 AM EST on December 14, 2019 (GMT -0500)
McKinnon

Weather History for KSSI - October, 2019

Change the Weather History Date:

Monday, October 28, 2019

  Actual Average Record
Temperature  
Mean Temperature 76 °F 67 °F  
Max Temperature 82 °F 75 °F 87 °F (1963)
Min Temperature 69 °F 58 °F 37 °F (1957)
Degree Days  
Heating Degree Days 0 2  
Month to date heating degree days 0 23  
Since 1 July heating degree days 0 23  
Cooling Degree Days 11 4  
Month to date cooling degree days 317 180  
Year to date cooling degree days 3304 2551  
Growing Degree Days 24 (Base 50)    
Moisture  
Dew Point 68 °F    
Average Humidity 75    
Maximum Humidity 87    
Minimum Humidity 62    
Precipitation  
Precipitation 0.00 in 0.09 in 2.03 in (1985)
Month to date precipitation 5.23 4.18  
Year to date precipitation 32.33 40.05  
Snow  
Snow 0.00 in - 0.00 in ()
Month to date snowfall 0.0  
Since 1 July snowfall 0.0  
Since 1 September snowfall 0.0  
Snow Depth 0.00 in    
Sea Level Pressure  
Sea Level Pressure 30.04 in    
Wind  
Wind Speed 4 mph (ENE)    
Max Wind Speed 9 mph    
Max Gust Speed 12 mph    
Visibility 10 miles    
Events Rain    
T = Trace of Precipitation, MM = Missing Value Source: NWS Daily Summary

Daily Weather History Graph

Daily Weather History Graph

Search for Another Location

Airport or City:

Astronomy

Oct. 28, 2019 Rise Set
Actual Time 7:37 AM EDT 6:40 PM EDT
Civil Twilight 7:12 AM EDT 7:05 PM EDT
Nautical Twilight 6:44 AM EDT 7:33 PM EDT
Astronomical Twilight 6:16 AM EDT 8:02 PM EDT
Moon 7:59 AM EDT (10/28) 7:25 PM EDT (10/28)
Length of Visible Light 11h 52m
Length of Day
11h 02m
New Moon, 0% of the Moon is Illuminated
Oct 28
New Moon
Nov 4
First Quarter
Nov 12
Full
Nov 19
Last Quarter
Nov 26
New

Hourly Weather History & Observations

Time (EDT) Temp. Heat Index Dew Point Humidity Pressure Visibility Wind Dir Wind Speed Gust Speed Precip Events Conditions
12:53 AM 73.9 °F - 70.0 °F 87% 30.00 in 10.0 mi Calm Calm - N/A   Mostly Cloudy
1:01 AM 73.9 °F - 70.0 °F 87% 30.00 in 10.0 mi Calm Calm - N/A   Mostly Cloudy
1:53 AM 73.9 °F - 70.0 °F 87% 30.00 in 10.0 mi Calm Calm - N/A   Overcast
2:53 AM 73.0 °F - 68.0 °F 84% 30.00 in 10.0 mi Calm Calm - N/A   Mostly Cloudy
3:07 AM 73.9 °F - 66.9 °F 79% 29.99 in 10.0 mi NW 3.5 mph - N/A   Scattered Clouds
3:53 AM 73.0 °F - 66.0 °F 79% 30.00 in 10.0 mi NNW 3.5 mph - N/A   Clear
4:53 AM 72.0 °F - 66.0 °F 81% 30.01 in 10.0 mi Calm Calm - N/A   Clear
5:53 AM 71.1 °F - 64.0 °F 78% 30.02 in 10.0 mi NW 4.6 mph - N/A   Mostly Cloudy
6:53 AM 70.0 °F - 63.0 °F 78% 30.03 in 10.0 mi North 4.6 mph - N/A   Clear
7:53 AM 69.1 °F - 63.0 °F 81% 30.05 in 10.0 mi North 4.6 mph - N/A   Clear
8:53 AM 72.0 °F - 63.0 °F 73% 30.06 in 10.0 mi North 4.6 mph - N/A   Clear
9:53 AM 78.1 °F - 64.0 °F 62% 30.08 in 10.0 mi East 3.5 mph - 0.00 in Rain Light Rain
10:53 AM 79.0 °F - 66.0 °F 64% 30.08 in 10.0 mi East 5.8 mph - 0.00 in   Clear
11:53 AM 80.1 °F 82.3 °F 66.9 °F 64% 30.08 in 10.0 mi ENE 4.6 mph - N/A   Clear
12:53 PM 80.1 °F 82.3 °F 66.9 °F 64% 30.08 in 10.0 mi East 6.9 mph - N/A   Clear
1:53 PM 80.1 °F 82.3 °F 66.9 °F 64% 30.06 in 10.0 mi East 6.9 mph - N/A   Clear
2:53 PM 79.0 °F - 68.0 °F 69% 30.04 in 10.0 mi East 6.9 mph - N/A   Clear
3:53 PM 80.1 °F 82.7 °F 68.0 °F 67% 30.04 in 10.0 mi ESE 5.8 mph - N/A   Clear
4:53 PM 80.1 °F 83.2 °F 70.0 °F 71% 30.05 in 10.0 mi Variable 4.6 mph - N/A   Clear
5:53 PM 77.0 °F - 70.0 °F 79% 30.04 in 10.0 mi East 5.8 mph - N/A   Clear
6:53 PM 77.0 °F - 71.1 °F 82% 30.04 in 10.0 mi East 6.9 mph - N/A   Clear
7:53 PM 77.0 °F - 72.0 °F 84% 30.06 in 10.0 mi East 4.6 mph - N/A   Clear
8:53 PM 77.0 °F - 71.1 °F 82% 30.08 in 10.0 mi ESE 4.6 mph - 0.00 in Rain Light Rain
9:53 PM 75.9 °F - 71.1 °F 85% 30.09 in 10.0 mi ESE 3.5 mph - 0.00 in Rain Light Rain
10:53 PM 75.9 °F - 71.1 °F 85% 30.09 in 10.0 mi Calm Calm - 0.00 in Rain Light Rain
11:53 PM 75.0 °F - 71.1 °F 87% 30.09 in 10.0 mi Calm Calm - 0.00 in Rain Light Rain